Regional Weather Roundup
Issued by NWS

Home | Current Version | Previous Version | Graphics & Text | Print | Product List | Glossary On
Versions: 1 2 3 4 5 6 7 8 9 10 11 12 13 14 15 16 17 18 19 20 21 22 23 24 25 26 27 28
000
ASUS45 KPSR 241210
RWRAZ

ARIZONA HOURLY REGIONAL WEATHER ROUNDUP
NATIONAL WEATHER SERVICE PHOENIX AZ
500 AM MST MON JUL 24 2017

NOTE: FAIR INDICATES FEW OR NO CLOUDS BELOW 12,000 FEET WITH NO
SIGNIFICANT WEATHER AND/OR OBSTRUCTIONS TO VISIBILITY.

AZZ001>003-036-241300-
NORTHWEST ARIZONA

CITY           SKY/WX    TMP DP  RH WIND       PRES   REMARKS
KINGMAN        CLOUDY    72  67  84 S3        30.03S
6HR MIN TEMP:  69; 6HR MAX TEMP:  77;

$$

AZZ004>008-015-016-018-241300-
NORTH CENTRAL ARIZONA

CITY           SKY/WX    TMP DP  RH WIND       PRES   REMARKS
GRAND CANYON   CLOUDY    62  57  83 CALM      30.26R
6HR MIN TEMP:  61; 6HR MAX TEMP:  65;

WILLIAMS       CLOUDY    61  57  88 S6        30.27R
PRESCOTT       LGT RAIN  66  66 100 CALM      30.15S
6HR MIN TEMP:  65; 6HR MAX TEMP:  70; 6HR PCP:  0.01;

FLAGSTAFF      CLOUDY    58  57  97 CALM      30.29S
6HR MIN TEMP:  58; 6HR MAX TEMP:  60; 6HR PCP:  0.09;

PAYSON         LGT RAIN  66  66 100 CALM      30.19R
PAGE           CLOUDY    81  56  42 E5        30.05R
6HR MIN TEMP:  80; 6HR MAX TEMP:  87;

$$

AZZ009>014-017-241300-
NORTHEAST ARIZONA

CITY           SKY/WX    TMP DP  RH WIND       PRES   REMARKS
WINSLOW        CLOUDY    68  65  90 SE5       30.17R
6HR MIN TEMP:  68; 6HR MAX TEMP:  73; 6HR PCP:  0.03;

SAINT JOHNS    MOCLDY    63  61  93 CALM      30.20R
6HR MIN TEMP:  63; 6HR MAX TEMP:  71; 6HR PCP:  0.04;

WINDOW ROCK    CLOUDY    60  55  83 N8        30.27F
6HR MIN TEMP:  59; 6HR MAX TEMP:  72; 6HR PCP:  0.85;

SHOW LOW       MOCLDY    57  55  94 NE8       30.24S
$$

AZZ540-542>544-546-548-241300-
GREATER PHOENIX AREA

CITY           SKY/WX    TMP DP  RH WIND       PRES   REMARKS
PHOENIX        CLOUDY    80  72  76 SE3       29.89R
6HR MIN TEMP:  77; 6HR MAX TEMP:  80; 6HR PCP:  0.01;

BUCKEYE        CLOUDY    82  70  65 E7        29.89R
LUKE AFB       MOCLDY    82  70  68 N3        29.88R
6HR MIN TEMP:  80; 6HR MAX TEMP:  83;

DEER VALLEY    CLOUDY    81  70  69 NE3       29.90S
6HR MIN TEMP:  80; 6HR MAX TEMP:  82;

SCOTTSDALE     CLOUDY    79  73  82 SW3       29.92S
6HR MIN TEMP:  77; 6HR MAX TEMP:  79; 6HR PCP:  0.01;

MESA-GATEWAY   PTCLDY    77  73  88 NW5       29.92R
$$

AZZ539-553-241300-
SOUTHWEST MARICOPA COUNTY AND PINAL COUNTY

CITY           SKY/WX    TMP DP  RH WIND       PRES   REMARKS
CASA GRANDE    CLOUDY    78  74  87 N3        29.92R
6HR MIN TEMP:  76; 6HR MAX TEMP:  79;

GILA BEND      CLOUDY    87  70  56 CALM      29.85R
6HR MIN TEMP:  87; 6HR MAX TEMP:  89;

$$

AZZ503-504-507>509-241300-
SOUTHEAST ARIZONA

CITY           SKY/WX    TMP DP  RH WIND       PRES   REMARKS
TUCSON         CLOUDY    75  70  84 SE7       30.00R
6HR MIN TEMP:  74; 6HR MAX TEMP:  77;

DAVIS-MONTHAN  CLOUDY    73  73 100 S6        29.99R
6HR MIN TEMP:  73; 6HR MAX TEMP:  76; 6HR PCP: TRACE;

NOGALES        MOCLDY    68  66  93 CALM      30.07R
6HR MIN TEMP:  68; 6HR MAX TEMP:  69;

SIERRA VISTA   MOCLDY    65  64  95 CALM      30.13R
6HR MIN TEMP:  65; 6HR MAX TEMP:  68;

DOUGLAS        CLOUDY    67  67 100 SE3       30.09R
6HR MIN TEMP:  67; 6HR MAX TEMP:  69;

SAFFORD        MOCLDY    73  68  84 N6        30.00R
6HR MIN TEMP:  72; 6HR MAX TEMP:  75;

$$

AZZ532-241300-
SOUTHWEST ARIZONA

CITY           SKY/WX    TMP DP  RH WIND       PRES   REMARKS
YUMA           CLOUDY    87  62  43 SE10      29.79R
6HR MIN TEMP:  85; 6HR MAX TEMP:  90;

$$

CAZ041-043-047-048-061-525>527-560>570-241300-
SOUTHERN CALIFORNIA

CITY           SKY/WX    TMP DP  RH WIND       PRES   REMARKS
DOWNTOWN L.A.  MOCLDY    69  63  81 CALM      29.87S
6HR MIN TEMP:  68; 6HR MAX TEMP:  71;

L.A. AIRPORT   MOCLDY    69  64  84 CALM      29.88S
6HR MIN TEMP:  67; 6HR MAX TEMP:  69;

SAN DIEGO      MOCLDY    70  64  81 W5        29.89S
6HR MIN TEMP:  70; 6HR MAX TEMP:  71;

BURBANK          N/A     67  61  81 CALM      29.88F
6HR MIN TEMP:  67; 6HR MAX TEMP:  69;

ONTARIO        MOCLDY    68  62  81 SW3       29.89S
6HR MIN TEMP:  67; 6HR MAX TEMP:  70;

RIVERSIDE      PTCLDY    67  63  87 CALM      29.90R
6HR MIN TEMP:  66; 6HR MAX TEMP:  70;

PALM SPRINGS   PTCLDY    85  58  39 N5        29.83R
6HR MIN TEMP:  85; 6HR MAX TEMP:  94;

EL CENTRO NAS  MOCLDY    80  74  81 E8        29.78R
6HR MIN TEMP:  80; 6HR MAX TEMP:  90; 6HR PCP:  0.21;

IMPERIAL       MOCLDY    82  73  74 E9        29.76R
6HR MIN TEMP:  82; 6HR MAX TEMP:  90; 6HR PCP:  0.35;

BLYTHE         MOCLDY    87  66  49 S7        29.81R
6HR MIN TEMP:  87; 6HR MAX TEMP:  94;

NEEDLES        PTCLDY    91  65  41 S6        29.84R
6HR MIN TEMP:  91; 6HR MAX TEMP:  97;

$$

NVZ020-UTZ003-241300-
SOUTHERN NEVADA-UTAH

CITY           SKY/WX    TMP DP  RH WIND       PRES   REMARKS
LAS VEGAS      MOCLDY    88  60  38 NE8       29.88S
6HR MIN TEMP:  87; 6HR MAX TEMP:  96; 6HR PCP: TRACE;

SALT LAKE CITY PTCLDY    75  49  39 SE7       30.00R
6HR MIN TEMP:  74; 6HR MAX TEMP:  83;

$$

NMZ009-TXZ055-241300-
NEW MEXICO-WEST TEXAS

CITY           SKY/WX    TMP DP  RH WIND       PRES   REMARKS
ALBUQUERQUE    CLOUDY    67  58  72 E6        30.20S
6HR MIN TEMP:  67; 6HR MAX TEMP:  73;

EL PASO        PTCLDY    71  67  87 N10       30.07R
6HR MIN TEMP:  71; 6HR MAX TEMP:  72;

$$


........................KEY........................
SKY/WX - SKY CONDITION/WEATHER
TMP    - TEMPERATURE IN FAHRENHEIT
DP     - DEW POINT IN FAHRENHEIT
RH     - RELATIVE HUMIDITY IN PERCENT
WIND   - DIRECTION AND SPEED IN MILES PER HOUR (MPH)
VRB    - VARIABLE WIND DIRECTION
PRES   - MEAN SEA LEVEL PRESSURE IN INCHES OF MERCURY
         F - FALLING PRESSURE   R - RISING PRESSURE
         S - STEADY PRESSURE
VSB    - VISIBILITY IN MILES
HX     - HEAT INDEX IN FAHRENHEIT
WCI    - WIND CHILL INDEX IN FAHRENHEIT
TC     - TEMPERATURE IN CELSIUS WHICH IS ALSO KNOWN AS
         TEMPERATURE IN CENTIGRADE
AFB    - AIR FORCE BASE
         LUKE AFB IS LUKE AIR FORCE BASE
         DAVIS-MONTHAN IS DAVIS-MONTHAN AIR FORCE BASE
NAS    - NAVAL AIR STATION
         EL CENTRO NAS IS EL CENTRO NAVAL AIR STATION
N/A    - NOT AVAILABLE





USA.gov is the U.S. government's official web portal to all federal, state and local government web resources and services.